Regional Weather Roundup
Issued by NWS Newport/Morehead, NC

Current Version | Previous Version | Text Only | Print | Product List | Glossary Off
Versions: 1 2 3 4 5 6 7 8 9 10 11 12 13 14 15 16 17 18 19 20 21 22 23 24 25 26 27 28 29 30 31 32 33 34 35 36 37 38 39 40 41 42 43 44 45 46 47 48 49 50

000
ASUS42 KMHX 270324
RWRMHX
WEATHER ROUNDUP FOR EASTERN NORTH CAROLINA
NATIONAL WEATHER SERVICE NEWPORT/MOREHEAD CITY NC
1100 PM EDT SUN APR 26 2015

NOTE: "FAIR" INDICATES FEW OR NO CLOUDS BELOW 12,000 FEET
WITH NO SIGNIFICANT WEATHER AND/OR OBSTRUCTIONS TO VISIBILITY

NCZ015>017-031-032-045>047-102-103-270400-
NORTH COAST

CITY           SKY/WX    TMP DP  RH WIND       PRES   REMARKS
EDENTON        MOCLDY    48  46  94 NE3       29.74F
ELIZABETH CITY PTCLDY    51  41  68 NE6       29.75S
KITTY HAWK     MOCLDY    51  35  53 N5        29.74S
MANTEO         MOCLDY    52  35  52 NE9       29.74F

$$

NCZ045>047-081-094-103-104-270400-
CENTRAL COAST

CITY           SKY/WX    TMP DP  RH WIND       PRES   REMARKS
FRISCO         MOCLDY    50  43  77 N8G17     29.72S
SWANQUARTER      N/A     48 N/A N/A N3        29.71S

$$

NCZ095-097-098-100-101-270400-
SOUTHERN COAST

CITY           SKY/WX    TMP DP  RH WIND       PRES   REMARKS
BEAUFORT       LGT RAIN  52  48  86 N5        29.75R
CEDAR ISLAND     N/A     55 N/A N/A N18       29.79R
JACKSONVILLE   CLOUDY    52  47  83 N6        29.75F
PINEY ISLAND   PTCLDY   N/A N/A N/A N7        29.75R
WILMINGTON     CLOUDY    53  48  83 NE10      29.75F


$$

NCZ011>013-027>030-043-044-078>080-089-090>093-098-270400-
COASTAL PLAIN

CITY           SKY/WX    TMP DP  RH WIND       PRES   REMARKS
AHOSKIE        PTCLDY    47  46  97 CALM      29.76F FOG
CLINTON        MOCLDY    51  50  99 CALM      29.77F
ELIZABETHTOWN  LGT RAIN  51  50  94 CALM      29.78R
GOLDSBORO      CLOUDY    50  48  94 CALM      29.76R
GREENVILLE     PTCLDY    50  48  93 CALM      29.79R
HAVELOCK         N/A     53  48  83 N6        29.77R
KENANSVILLE    CLOUDY    51  48  90 W3        29.79R
KINSTON        PTCLDY    48  47  97 CALM      29.78S
NEW BERN       CLOUDY    52  47  83 W5        29.78R
RICHLANDS      MOCLDY    50  46  87 CALM      29.77F
ROCKY MOUNT    MOCLDY    50  47  89 CALM      29.76F
WASHINGTON     PTCLDY    47  46  94 SW3       29.77R
WHITEVILLE     RAIN      53  48  83 NE3       29.77S

$$

AMZ130-135-150-152-154-156-158-170-250-252-270-ANZ085-086-088-633-658-670-270400-
MARINE OBSERVATIONS

STATION/POSITION TIME  TEMP    WIND        PRES    WAVE   SWELL
                       AIR SEA DIR/SP/G            HT/PER HT/PER
                 (UTC) (F)     (DEG/KT/KT) (MB)    (FT/S) (FT/S)
CHESAPEAKE LIGHT 0300   51      70/  4/  4 1008.1
64 E VA BEACH    0250   53 55  340/ 14/ 16 1006.1    5/ 6   3/ 6
DUCK             0300   53 55   20/  8/ 10 1006.3
2 E DUCK         0211      53                N/A     3/ 6
10 NE DUCK       NOT AVBL
OREGON INLET     0300   51 55  350/ 10/ 14 1006.6
HATTERAS CG      0300   56 61   10/ 15/ 22 1005.4
DIAMOND BUOY     0250   56 77  360/ 19/ 23 1005.6    7/10   5/10
CAPE LOOKOUT     0300   54      10/ 10/ 12 1006.8
BEAUFORT LAB     0300   54 62   10/  8/  9 1006.2
27 SE WRIGHTSVLE 0300   55 72   30/ 12/ 16   N/A
5 SE WRIGHTSVLE  0208   56 65   20/ 14/ 19 1007.4
225 S CAPE HAT   0250   69 71   30/  8/ 10 1004.7    7/ 8   7/ 8
41 SE CHARLESTON 0250   67 71   40/ 21/ 25 1004.2    5/ 5   2/11

$$



USA.gov is the U.S. government's official web portal to all federal, state and local government web resources and services.